This is the latest recevied weather packets stored in our database for station/object IZ3LCH-13. If no packets are shown the sender has not sent any weather packets the latest 1 day(s).
| Time | Temp. | Humidity | Pressure | Rain* | Wind** | Luminosity | Snow |
|---|---|---|---|---|---|---|---|
| 1778009103 | 14.44° C | 83% | 1012.7 hPa | 0 mm | 2.24 m/s, 356° | - | - |
| 1778008803 | 14.44° C | 83% | 1012.7 hPa | 0 mm | 2.24 m/s, 356° | - | - |
| 1778008503 | 14.44° C | 83% | 1012.6 hPa | 0 mm | 1.79 m/s, 2° | - | - |
| 1778008203 | 14.44° C | 83% | 1012.8 hPa | 0 mm | 2.24 m/s, 360° | - | - |
| 1778007903 | 14.44° C | 83% | 1012.6 hPa | 0 mm | 2.24 m/s, 357° | - | - |
| 1778007603 | 14.44° C | 82% | 1012.7 hPa | 0 mm | 2.24 m/s, 1° | - | - |
| 1778007303 | 14.44° C | 82% | 1012.9 hPa | 0 mm | 2.24 m/s, 2° | - | - |
| 1778007003 | 14.44° C | 82% | 1012.6 hPa | 0 mm | 2.24 m/s, 2° | - | - |
| 1778006703 | 14.44° C | 82% | 1012.6 hPa | 0 mm | 2.24 m/s, 2° | - | - |
| 1778006404 | 14.44° C | 82% | 1012.8 hPa | 0 mm | 1.79 m/s, 360° | - | - |
| 1778006103 | 14.44° C | 82% | 1012.5 hPa | 0 mm | 1.79 m/s, 5° | - | - |
| 1778005803 | 14.44° C | 82% | 1012.8 hPa | 0 mm | 1.79 m/s, 2° | - | - |
| 1778005503 | 14.44° C | 82% | 1012.6 hPa | 0 mm | 1.79 m/s, 5° | - | - |
| 1778005203 | 14.44° C | 82% | 1012.5 hPa | 0 mm | 2.24 m/s, 12° | - | - |
| 1778004903 | 14.44° C | 82% | 1012.5 hPa | 0 mm | 2.24 m/s, 8° | - | - |
| 1778004603 | 15° C | 82% | 1012.7 hPa | 0 mm | 2.24 m/s, 5° | - | - |
| 1778004303 | 15° C | 82% | 1012.4 hPa | 0 mm | 2.24 m/s, 4° | - | - |
| 1778004003 | 15° C | 82% | 1012.3 hPa | 0 mm | 2.24 m/s, 2° | - | - |
| 1778003703 | 15° C | 82% | 1012.6 hPa | 0 mm | 2.24 m/s, 7° | - | - |
| 1778003403 | 15° C | 82% | 1012.2 hPa | 0 mm | 2.68 m/s, 10° | - | - |
| 1778003103 | 15° C | 81% | 1012.3 hPa | 0 mm | 2.68 m/s, 5° | - | - |
| 1778002803 | 15° C | 81% | 1012.4 hPa | 0 mm | 2.68 m/s, 4° | - | - |
| 1778002503 | 15° C | 81% | 1012.3 hPa | 0 mm | 2.68 m/s, 7° | - | - |
| 1778002203 | 15° C | 81% | 1012.6 hPa | 0 mm | 2.68 m/s, 4° | - | - |
| 1778001903 | 15.56° C | 81% | 1012.5 hPa | 0 mm | 2.24 m/s, 359° | - | - |
* Rain latest hour (hover to see other rain measurements)
** Current wind speed in m/s (hover to see current wind gust speed)